KD2RHT-13 Weather Reports


Display with metric or nautical units.
time (UTC)temp
F
wind
direction
speed
MPH
gust
MPH
rain 1hr
in
rain 24hr
in
rain mn
in
humidity
%
barometer
mb
20260902184956 84 167 1.0 1.0 0.00 1.04 1.04 75 1016.6
20260902184451 85 191 2.0 3.0 0.00 1.04 1.04 74 1016.6
20260902183947 85 192 2.0 2.0 0.00 1.04 1.04 73 1016.9
20260902183443 84 167 5.0 6.0 0.00 1.04 1.04 74 1016.9
20260902182939 83 203 1.0 2.0 0.00 1.04 1.04 75 1016.9
20260902182435 84 218 3.0 3.0 0.00 1.04 1.04 74 1017.3
20260902181931 85 311 3.0 5.0 0.00 1.04 1.04 72 1016.9
20260902181426 84 220 1.0 3.0 0.00 1.04 1.04 74 1016.9
20260902180920 84 211 3.0 5.0 0.00 1.04 1.04 74 1017.3
20260902180416 83 88 3.0 5.0 0.00 1.04 1.04 76 1016.9
20260902175911 83 154 2.0 3.0 0.00 1.04 1.04 76 1016.6
20260902175406 83 11 4.0 6.0 0.00 1.04 1.04 77 1016.9
20260902174902 82 224 5.0 6.0 0.00 1.04 1.04 78 1016.9
20260902174359 82 309 3.0 3.0 0.00 1.04 1.04 79 1016.6
20260902173854 82 107 3.0 3.0 0.00 1.04 1.04 81 1016.9
20260902173353 81 153 4.0 5.0 0.00 1.04 1.04 82 1017.3
20260902172849 81 138 2.0 5.0 0.00 1.04 1.04 83 1016.6
20260902172348 81 143 1.0 1.0 0.00 1.04 1.04 84 1016.9
20260902171843 81 222 2.0 3.0 0.00 1.04 1.04 85 1016.9
20260902171338 80 153 2.0 2.0 0.00 1.04 1.04 85 1016.9
20260902170835 80 135 1.0 2.0 0.00 1.04 1.04 88 1016.6
20260902170330 78 177 2.0 2.0 0.00 1.04 1.04 88 1016.9
20260902165826 77 174 3.0 5.0 0.00 1.04 1.04 88 1016.9
20260902165325 77 99 3.0 5.0 0.00 1.04 1.04 89 1017.3
20260902164819 77 182 3.0 3.0 0.00 1.04 1.04 88 1016.9
20260902164315 76 129 2.0 2.0 0.00 1.04 1.04 90 1016.9
20260902163809 75 210 7.0 10.0 0.00 1.04 1.04 90 1016.9
20260902163309 73 180 2.0 3.0 0.00 1.04 1.04 95 1016.9
20260902162807 73 177 1.0 2.0 0.00 1.04 1.04 96 1016.6
20260902162306 71 158 3.0 3.0 0.00 1.04 1.04 99 1016.9
20260902161802 71 210 5.0 6.0 0.00 1.04 1.04 99 1016.9
20260902161258 70 153 3.0 6.0 0.00 1.04 1.04 99 1016.9
20260902160754 70 65 4.0 6.0 0.00 1.04 1.04 99 1016.9
20260902160249 70 148 3.0 5.0 0.00 1.04 1.04 99 1016.9
20260902155747 69 197 5.0 8.0 0.00 1.04 1.04 99 1017.3
20260902155246 69 162 2.0 3.0 0.05 1.04 1.04 99 1017.3
20260902154741 68 170 4.0 6.0 0.12 1.04 1.04 99 1017.6
20260902154236 68 141 1.0 1.0 0.12 1.03 1.03 99 1018.3
20260902153735 68 156 0.0 1.0 0.07 1.01 1.01 99 1017.9
20260902153236 68 168 0.0 0.0 0.12 1.01 1.01 99 1017.9
20260902152731 68 225 1.0 1.0 0.17 1.00 1.00 99 1017.9
20260902152227 68 136 1.0 5.0 0.24 0.98 0.98 99 1018.6
20260902151722 68 130 2.0 2.0 0.17 0.96 0.96 99 1018.9
20260902151217 68 99 2.0 3.0 0.19 0.93 0.93 99 1019.3
20260902150712 68 114 3.0 5.0 0.38 0.93 0.93 99 1019.3
20260902150208 68 153 1.0 2.0 0.35 0.90 0.90 99 1019.6
20260902145707 69 172 2.0 2.0 0.54 0.86 0.86 99 1019.6
20260902145207 69 153 0.0 0.0 0.78 0.83 0.83 99 1019.6
20260902144703 69 149 1.0 2.0 0.85 0.77 0.77 99 1020.0
20260902144159 68 147 0.0 0.0 0.47 0.68 0.68 99 1020.6
20260902143653 68 172 0.0 0.0 0.35 0.63 0.63 99 1020.6
20260902143149 68 204 0.0 0.0 0.31 0.59 0.59 99 1018.9
20260902142645 68 158 0.0 0.0 0.24 0.57 0.57 99 1018.9
20260902142141 68 156 0.0 0.0 0.24 0.54 0.54 99 1019.3
20260902141640 68 143 0.0 0.0 0.24 0.52 0.52 99 1019.3
20260902141136 68 175 0.0 0.0 0.17 0.50 0.50 99 1018.9
20260902140631 68 186 0.0 0.0 0.17 0.48 0.48 99 1019.3
20260902140125 68 158 0.0 0.0 0.17 0.46 0.46 99 1019.3
20260902135624 68 157 0.0 0.0 1.16 0.45 0.45 99 1018.9
20260902135120 68 140 0.0 1.0 1.82 0.43 0.43 99 1019.3
20260902134615 68 162 0.0 0.0 0.94 0.22 0.22 99 1018.9
20260902134110 68 180 1.0 2.0 0.35 0.11 0.11 99 1018.9
20260902133604 68 173 0.0 0.0 0.14 0.06 0.06 99 1018.3
20260902133059 69 162 0.0 1.0 0.12 0.05 0.05 99 1018.6
20260902132554 69 158 0.0 0.0 0.17 0.04 0.04 99 1018.6
20260902132049 69 165 0.0 0.0 0.05 0.02 0.02 99 1018.6
20260902131545 69 192 1.0 1.0 0.07 0.01 0.01 99 1018.9
20260902131039 69 159 0.0 0.0 0.07 0.01 0.01 99 1018.9
20260902130536 69 160 0.0 0.0 0.00 0.00 0.00 99 1018.9
20260902130031 69 158 0.0 0.0 0.00 0.00 0.00 99 1018.6
20260902125527 69 167 0.0 0.0 0.00 0.00 0.00 99 1018.6
20260902125022 69 164 0.0 0.0 0.00 0.00 0.00 99 1018.3
20260902124518 69 162 0.0 0.0 0.00 0.00 0.00 99 1018.6
20260902124013 69 153 0.0 0.0 0.00 0.00 0.00 99 1018.3
20260902123509 69 167 0.0 0.0 0.00 0.00 0.00 99 1018.3
20260902123008 69 72 0.0 0.0 0.00 0.00 0.00 99 1018.3
20260902122503 69 165 0.0 0.0 0.00 0.00 0.00 99 1018.6
20260902121958 69 164 0.0 0.0 0.00 0.00 0.00 99 1018.3
20260902121454 69 162 0.0 0.0 0.00 0.00 0.00 99 1018.6
20260902120948 69 157 0.0 0.0 0.00 0.00 0.00 99 1017.9
20260902120444 68 159 0.0 0.0 0.00 0.00 0.00 99 1017.9
20260902115944 68 161 0.0 0.0 0.00 0.00 0.00 99 1017.9
20260902115441 68 167 0.0 0.0 0.00 0.00 0.00 99 1017.6
20260902114937 68 172 0.0 0.0 0.00 0.00 0.00 99 1017.9
20260902114432 68 168 0.0 1.0 0.00 0.00 0.00 99 1018.3
20260902113927 68 166 0.0 0.0 0.00 0.00 0.00 99 1017.6
20260902113423 68 174 0.0 0.0 0.00 0.00 0.00 99 1017.9
20260902112922 68 164 0.0 0.0 0.00 0.00 0.00 99 1017.9
20260902112418 68 173 0.0 0.0 0.00 0.00 0.00 99 1017.6
20260902111914 68 163 0.0 0.0 0.00 0.00 0.00 99 1017.9
20260902111411 68 175 0.0 0.0 0.00 0.00 0.00 99 1017.6
20260902110906 68 166 0.0 0.0 0.00 0.00 0.00 99 1017.6
20260902110402 68 126 0.0 1.0 0.00 0.00 0.00 99 1017.6
20260902105901 68 167 0.0 1.0 0.00 0.00 0.00 99 1017.6
20260902105356 68 163 0.0 0.0 0.00 0.00 0.00 99 1017.6
20260902104851 68 165 0.0 0.0 0.00 0.00 0.00 99 1017.6
20260902104348 68 244 0.0 0.0 0.00 0.00 0.00 99 1017.3
20260902103847 68 148 1.0 1.0 0.00 0.00 0.00 99 1017.3
20260902103342 68 161 0.0 1.0 0.00 0.00 0.00 99 1017.6
20260902102837 68 164 0.0 0.0 0.00 0.00 0.00 99 1017.6
20260902102335 68 156 1.0 1.0 0.00 0.00 0.00 99 1017.6
20260902101830 68 177 1.0 1.0 0.00 0.00 0.00 99 1017.9
20260902101325 68 167 1.0 1.0 0.00 0.00 0.00 99 1018.3
20260902100825 68 164 0.0 0.0 0.00 0.00 0.00 99 1018.3
20260902100324 68 173 0.0 0.0 0.00 0.00 0.00 99 1017.9
20260902095819 68 162 0.0 0.0 0.00 0.00 0.00 99 1017.9
20260902095314 68 176 0.0 0.0 0.00 0.00 0.00 99 1018.3
20260902094814 68 159 0.0 0.0 0.00 0.00 0.00 99 1018.3
20260902094310 68 160 0.0 0.0 0.00 0.00 0.00 99 1018.3
20260902093810 68 161 0.0 0.0 0.00 0.00 0.00 99 1018.3
20260902093305 67 164 0.0 0.0 0.00 0.00 0.00 99 1018.3
20260902092804 67 94 1.0 1.0 0.00 0.00 0.00 99 1018.3
20260902092259 67 166 0.0 0.0 0.00 0.00 0.00 99 1018.3
20260902091759 67 162 0.0 0.0 0.00 0.00 0.00 99 1017.9
20260902091255 67 166 0.0 0.0 0.00 0.00 0.00 99 1018.3
20260902090751 67 168 0.0 0.0 0.00 0.00 0.00 99 1017.9
20260902090250 67 164 0.0 0.0 0.00 0.00 0.00 99 1017.9
20260902085744 67 159 0.0 0.0 0.00 0.00 0.00 99 1017.9
20260902085240 67 164 0.0 0.0 0.00 0.00 0.00 99 1018.3
20260902084735 67 162 0.0 0.0 0.00 0.00 0.00 99 1018.3
20260902084231 67 154 0.0 0.0 0.00 0.00 0.00 99 1018.3
20260902083731 67 162 0.0 0.0 0.00 0.00 0.00 99 1018.3
20260902083226 67 162 0.0 0.0 0.00 0.00 0.00 99 1018.3
20260902082721 67 160 0.0 0.0 0.00 0.00 0.00 99 1018.6
20260902082218 67 167 0.0 0.0 0.00 0.00 0.00 99 1018.6
20260902081714 67 165 0.0 0.0 0.00 0.00 0.00 99 1018.3
20260902081215 67 168 0.0 0.0 0.00 0.00 0.00 99 1018.3
20260902080710 67 162 0.0 0.0 0.00 0.00 0.00 99 1018.3
20260902080207 67 164 0.0 0.0 0.00 0.00 0.00 99 1018.3
20260902075706 66 160 0.0 0.0 0.00 0.00 0.00 99 1018.3
20260902075203 67 161 0.0 0.0 0.00 0.00 0.00 99 1018.3
20260902074702 67 162 0.0 0.0 0.00 0.00 0.00 99 1018.3
20260902074157 67 159 0.0 0.0 0.00 0.00 0.00 99 1018.3
20260902073652 67 159 0.0 0.0 0.00 0.00 0.00 99 1018.3
20260902073149 67 158 0.0 0.0 0.00 0.00 0.00 99 1018.3
20260902072645 67 160 0.0 0.0 0.00 0.00 0.00 99 1018.3
20260902072141 67 162 0.0 0.0 0.00 0.00 0.00 99 1018.3
20260902071636 67 153 0.0 0.0 0.00 0.00 0.00 99 1017.9
20260902071132 67 162 0.0 0.0 0.00 0.00 0.00 99 1018.3
20260902070627 67 159 0.0 0.0 0.00 0.00 0.00 99 1017.9
20260902070127 67 158 0.0 0.0 0.00 0.00 0.00 99 1017.9
20260902065626 67 162 0.0 0.0 0.00 0.00 0.00 99 1017.9
20260902065122 67 157 0.0 0.0 0.00 0.00 0.00 99 1017.9
20260902064617 66 168 0.0 0.0 0.00 0.00 0.00 99 1017.9
20260902064113 66 167 0.0 0.0 0.00 0.00 0.00 99 1017.9
20260902063608 66 165 0.0 0.0 0.00 0.00 0.00 99 1018.3
20260902063102 66 162 0.0 0.0 0.00 0.00 0.00 99 1018.3
20260902062601 66 160 0.0 0.0 0.00 0.00 0.00 99 1018.3
20260902062057 66 165 0.0 0.0 0.00 0.00 0.00 99 1018.3
20260902061556 66 161 0.0 0.0 0.00 0.00 0.00 99 1018.6
20260902061052 66 161 0.0 0.0 0.00 0.00 0.00 99 1018.3
20260902060549 66 162 0.0 0.0 0.00 0.00 0.00 99 1018.3
20260902060045 66 161 0.0 0.0 0.00 0.00 0.00 99 1018.3
20260902055540 66 164 0.0 0.0 0.00 0.00 0.00 99 1018.3
20260902055036 67 162 0.0 0.0 0.00 0.00 0.00 99 1018.3
20260902054530 67 153 0.0 0.0 0.00 0.00 0.00 99 1018.3
20260902054026 66 161 0.0 0.0 0.00 0.00 0.00 99 1018.3
20260902053521 66 163 0.0 0.0 0.00 0.00 0.00 99 1017.9
20260902053021 66 159 0.0 0.0 0.00 0.00 0.00 99 1018.3
20260902052515 66 158 0.0 0.0 0.00 0.00 0.00 99 1018.3
20260902052011 66 158 0.0 0.0 0.00 0.00 0.00 99 1018.3
20260902051511 66 161 0.0 0.0 0.00 0.00 0.00 99 1018.3
20260902051009 66 159 0.0 0.0 0.00 0.00 0.00 99 1017.9
20260902050504 66 158 0.0 0.0 0.00 0.00 0.00 99 1017.9
20260902045959 66 158 0.0 0.0 0.00 0.00 0.00 99 1018.3
20260902045455 66 159 0.0 0.0 0.00 0.00 0.00 99 1018.3
20260902044951 66 158 0.0 0.0 0.00 0.00 0.00 99 1017.9
20260902044446 66 158 0.0 0.0 0.00 0.00 0.00 99 1017.9
20260902043942 67 158 0.0 0.0 0.00 0.00 0.00 99 1018.3
20260902043436 67 158 0.0 0.0 0.00 0.00 0.00 99 1017.6
20260902042931 67 159 0.0 0.0 0.00 0.00 0.00 99 1017.9
20260902042431 67 157 0.0 0.0 0.00 0.00 0.00 99 1017.9
20260902041926 67 161 0.0 0.0 0.00 0.00 0.00 99 1017.9
20260902041421 67 162 0.0 0.0 0.00 0.00 0.00 99 1017.9
20260902040920 67 164 0.0 0.0 0.00 0.00 0.00 99 1017.6
20260902040414 67 169 0.0 0.0 0.00 0.00 0.00 99 1017.6
20260902035914 67 158 0.0 0.0 0.00 0.15 0.15 99 1017.9
20260902035404 67 161 0.0 0.0 0.00 0.15 0.15 99 1017.6
20260902034903 67 158 0.0 0.0 0.00 0.15 0.15 99 1017.6
20260902034358 67 158 0.0 0.0 0.00 0.15 0.15 99 1017.9
20260902033857 67 162 0.0 0.0 0.00 0.15 0.15 99 1017.9
20260902033351 67 159 0.0 0.0 0.00 0.15 0.15 99 1017.9
20260902032850 67 158 0.0 0.0 0.00 0.15 0.15 99 1017.9
20260902032344 68 158 0.0 0.0 0.00 0.15 0.15 99 1017.9
20260902031839 68 158 0.0 0.0 0.00 0.15 0.15 99 1017.9
20260902031336 68 162 0.0 0.0 0.00 0.15 0.15 99 1017.9
20260902030830 68 159 0.0 0.0 0.00 0.15 0.15 99 1017.6
20260902030325 69 162 0.0 0.0 0.00 0.15 0.15 99 1017.9
20260902025824 69 158 0.0 0.0 0.00 0.15 0.15 99 1017.9
20260902025314 69 160 0.0 0.0 0.00 0.15 0.15 99 1017.6
20260902024809 69 158 0.0 0.0 0.00 0.15 0.15 99 1018.3
20260902024304 69 163 0.0 0.0 0.00 0.15 0.15 99 1017.6
20260902023759 69 162 0.0 0.0 0.00 0.15 0.15 99 1017.6
20260902023255 69 202 1.0 2.0 0.00 0.15 0.15 99 1017.6
20260902022753 69 184 0.0 1.0 0.00 0.15 0.15 99 1017.9
20260902022244 70 166 0.0 0.0 0.00 0.15 0.15 99 1017.6
20260902021740 70 162 0.0 0.0 0.00 0.15 0.15 99 1017.9
20260902021239 70 162 0.0 0.0 0.00 0.15 0.15 99 1018.3
20260902020736 70 160 0.0 0.0 0.00 0.15 0.15 99 1017.9
20260902020231 70 160 0.0 0.0 0.00 0.15 0.15 99 1017.9
20260902015726 71 161 0.0 0.0 0.00 0.15 0.15 99 1017.9
20260902015223 71 169 0.0 0.0 0.00 0.15 0.15 99 1017.9
20260902014718 71 170 0.0 0.0 0.00 0.15 0.15 99 1017.9
20260902014215 71 160 0.0 0.0 0.00 0.15 0.15 99 1017.9
20260902013713 71 160 0.0 0.0 0.00 0.15 0.15 99 1017.9
20260902013209 71 164 0.0 0.0 0.00 0.15 0.15 99 1017.9
20260902012704 71 167 0.0 0.0 0.00 0.15 0.15 99 1017.9
20260902012159 71 166 0.0 0.0 0.00 0.15 0.15 99 1017.6
20260902011654 71 159 0.0 0.0 0.00 0.15 0.15 99 1017.9
20260902011149 71 158 0.0 0.0 0.00 0.15 0.15 99 1017.6
20260902010648 71 152 0.0 0.0 0.00 0.15 0.15 99 1017.3
20260902010144 71 158 0.0 0.0 0.00 0.15 0.15 98 1017.6
20260902005642 71 160 0.0 0.0 0.00 0.15 0.15 98 1017.6
20260902005138 72 162 0.0 0.0 0.00 0.15 0.15 98 1017.3
20260902004638 72 160 0.0 0.0 0.00 0.15 0.15 98 1017.3
20260902004133 72 171 0.0 1.0 0.00 0.15 0.15 98 1016.9
20260902003628 72 156 0.0 0.0 0.00 0.15 0.15 98 1016.9
20260902003123 72 162 1.0 2.0 0.00 0.15 0.15 98 1016.9
20260902002619 72 218 0.0 0.0 0.00 0.15 0.15 98 1016.9
20260902002114 72 165 0.0 0.0 0.00 0.15 0.15 98 1016.9
20260902001608 72 159 0.0 0.0 0.00 0.15 0.15 98 1016.2
20260902001058 72 169 1.0 1.0 0.00 0.15 0.15 97 1016.6
20260902000552 72 159 0.0 0.0 0.00 0.15 0.15 97 1016.6
20260902000047 72 158 0.0 0.0 0.00 0.15 0.15 97 1016.2
20260901235541 72 157 0.0 0.0 0.00 0.15 0.15 97 1016.2
20260901235037 72 155 0.0 0.0 0.00 0.15 0.15 96 1016.6
20260901234536 73 155 0.0 0.0 0.00 0.15 0.15 96 1016.6
20260901234032 73 145 0.0 0.0 0.00 0.15 0.15 96 1016.2
20260901233531 73 159 0.0 0.0 0.00 0.15 0.15 95 1016.6
20260901233027 73 159 0.0 0.0 0.00 0.15 0.15 95 1016.6
20260901232523 73 159 0.0 0.0 0.00 0.15 0.15 95 1016.6
20260901232018 74 162 0.0 0.0 0.00 0.15 0.15 94 1016.6
20260901231514 74 145 0.0 0.0 0.00 0.15 0.15 94 1016.6
20260901231011 74 154 0.0 1.0 0.00 0.15 0.15 94 1016.6
20260901230510 75 160 0.0 0.0 0.00 0.15 0.15 94 1016.6
20260901230005 75 162 0.0 0.0 0.00 0.15 0.15 93 1016.6
20260901225500 75 157 0.0 0.0 0.00 0.15 0.15 93 1016.6
20260901224954 75 120 1.0 2.0 0.00 0.15 0.15 92 1016.6
20260901224450 75 68 0.0 1.0 0.00 0.15 0.15 92 1016.6
20260901223946 76 147 0.0 0.0 0.00 0.15 0.15 92 1016.9
20260901223442 76 146 0.0 0.0 0.00 0.15 0.15 92 1016.9
20260901222937 76 160 1.0 1.0 0.00 0.15 0.15 91 1016.6
20260901222433 77 116 0.0 1.0 0.00 0.15 0.15 90 1016.6
20260901221929 77 150 0.0 1.0 0.00 0.15 0.15 90 1016.6
20260901221425 77 151 0.0 0.0 0.00 0.15 0.15 90 1016.6
20260901220920 77 174 1.0 1.0 0.00 0.15 0.15 90 1016.6
20260901220419 77 159 1.0 1.0 0.00 0.15 0.15 89 1016.6
20260901215918 78 220 2.0 2.0 0.00 0.15 0.15 89 1016.2
20260901215416 78 159 1.0 1.0 0.00 0.15 0.15 89 1016.2
20260901214916 78 189 1.0 1.0 0.00 0.15 0.15 88 1016.6
20260901214414 78 147 2.0 2.0 0.00 0.15 0.15 88 1016.2
20260901213914 78 131 0.0 0.0 0.00 0.15 0.15 89 1016.2
20260901213409 78 124 0.0 0.0 0.00 0.15 0.15 89 1016.2
20260901212908 78 156 1.0 1.0 0.00 0.15 0.15 89 1016.2
20260901212404 78 186 1.0 1.0 0.00 0.15 0.15 89 1016.2
20260901211901 78 189 1.0 1.0 0.00 0.15 0.15 89 1016.2
20260901211355 78 148 0.0 1.0 0.00 0.15 0.15 88 1016.6
20260901210851 78 155 0.0 0.0 0.00 0.15 0.15 89 1015.9
20260901210341 78 160 1.0 1.0 0.00 0.15 0.15 88 1016.2
20260901205837 78 161 1.0 1.0 0.00 0.15 0.15 89 1016.6
20260901205337 78 178 1.0 1.0 0.00 0.15 0.15 90 1016.2
20260901204832 78 164 0.0 1.0 0.00 0.15 0.15 89 1016.6
20260901204329 78 160 0.0 0.0 0.00 0.15 0.15 89 1016.6
20260901203828 78 161 0.0 0.0 0.00 0.15 0.15 89 1016.6
20260901203322 78 175 0.0 0.0 0.00 0.15 0.15 89 1016.6
20260901202817 78 157 0.0 1.0 0.00 0.15 0.15 89 1016.6
20260901202312 78 159 0.0 0.0 0.00 0.15 0.15 88 1016.6
20260901201809 78 158 0.0 0.0 0.00 0.15 0.15 88 1016.2
20260901201308 79 163 0.0 0.0 0.00 0.15 0.15 88 1016.6
20260901200802 79 178 1.0 1.0 0.00 0.15 0.15 88 1016.2
20260901200258 78 155 0.0 0.0 0.00 0.15 0.15 89 1016.2
20260901195755 78 140 0.0 0.0 0.00 0.15 0.15 90 1016.2
20260901195249 78 154 1.0 2.0 0.00 0.15 0.15 89 1016.6
20260901194745 78 189 2.0 2.0 0.00 0.15 0.15 89 1016.2
20260901194240 78 150 1.0 2.0 0.00 0.15 0.15 88 1016.2
20260901193736 78 169 0.0 0.0 0.00 0.15 0.15 89 1016.2
20260901193235 79 142 1.0 1.0 0.00 0.15 0.15 88 1016.2
20260901192730 79 182 0.0 1.0 0.00 0.15 0.15 87 1016.2
20260901192225 80 159 0.0 0.0 0.00 0.15 0.15 86 1016.2
20260901191721 80 161 0.0 0.0 0.00 0.15 0.15 85 1016.2
20260901191217 81 161 0.0 0.0 0.00 0.15 0.15 85 1016.2
20260901190713 81 154 0.0 1.0 0.00 0.15 0.15 86 1016.2
20260901190212 81 218 0.0 1.0 0.00 0.15 0.15 85 1016.2
20260901185710 80 153 1.0 3.0 0.00 0.15 0.15 85 1016.2
20260901185208 81 129 1.0 1.0 0.00 0.15 0.15 85 1015.9